Overview Statistics Trail Chart Weather Telemetry Raw packets
 

This is the latest recevied weather packets stored in our database for station/object GW4003. If no packets are shown the sender has not sent any weather packets the latest 10 day(s).

<< 27 28 29 30 31 32 33 >>
Time Temp. Humidity Pressure Rain* Wind** Luminosity Snow
1788449761 23.33° C 36% 1018.5 hPa 0 mm - - -
1788449457 23.33° C 37% 1018.5 hPa 0 mm - - -
1788449153 22.78° C 38% 1018.5 hPa 0 mm - - -
1788448850 22.78° C 38% 1018.5 hPa 0 mm - - -
1788448547 22.22° C 40% 1018.5 hPa 0 mm - - -
1788448242 22.22° C 42% 1018.5 hPa 0 mm - - -
1788447939 21.67° C 42% 1018.5 hPa 0 mm - - -
1788447635 21.67° C 44% 1018.6 hPa 0 mm - - -
1788447331 21.67° C 44% 1018.7 hPa 0 mm - - -
1788447027 21.11° C 49% 1018.8 hPa 0 mm - - -
1788446724 20.56° C 50% 1018.8 hPa 0 mm - - -
1788446420 20° C 52% 1018.9 hPa 0 mm - - -
1788446117 18.89° C 55% 1018.8 hPa 0 mm - - -
1788445813 18.33° C 60% 1018.8 hPa 0 mm - - -
1788445509 17.78° C 60% 1018.7 hPa 0 mm - - -
1788445205 17.22° C 63% 1018.8 hPa 0 mm - - -
1788444902 17.22° C 64% 1018.9 hPa 0 mm - - -
1788444598 16.67° C 66% 1018.9 hPa 0 mm - - -
1788444294 16.11° C 69% 1018.7 hPa 0 mm - - -
1788443991 16.11° C 70% 1018.8 hPa 0 mm - - -
1788443686 16.11° C 71% 1018.7 hPa 0 mm - - -
1788443382 15.56° C 73% 1018.7 hPa 0 mm - - -
1788443079 15.56° C 74% 1018.7 hPa 0 mm - - -
1788442775 15.56° C 75% 1018.5 hPa 0 mm - - -
1788442470 15.56° C 76% 1018.5 hPa 0 mm - - -

* Rain latest hour (hover to see other rain measurements)
** Current wind speed in m/s (hover to see current wind gust speed)